{"data":{"norad_id":55950,"epoch":"2026-09-20T21:55:27.545664Z","epoch_age_seconds":70255,"freshness":"FRESH","line1":"1 55950U 23037AN  26263.91351326  .00000392  00000+0  40624-4 0  9991","line2":"2 55950  69.9983 132.3165 0002569 263.9561  96.1305 14.98330752193712","mean_motion":14.98330752,"eccentricity":0.0002569,"inclination_deg":69.9983,"raan_deg":132.3165,"arg_perigee_deg":263.9561,"mean_anomaly_deg":96.1305,"bstar":4.0624e-5,"rev_number":19371,"period_min":96.106950890373,"perigee_km":570.26806149116,"apogee_km":573.83906940368,"semimajor_km":6950.1905654474,"source":"CELESTRAK","updated_at":"2026-09-21T09:00:33.345644Z"}}